Find Elara 1

NORAD ID: 64539 Int'l Des: 2025-135 Owner: GILM Country: AU operational
LEOCIRCULARRETROGRADESSO

Aktuelle Ansicht

3D-Globus wird geladen...

Über Elara 1

Beschreibung wird geladen...

Nächste Überflüge

Passes for default location (London). Set your location on the main map for personalized predictions.

Höhenverlauf

Loading altitude history...

Zweizeiliger Elementsatz

1 64539U 25135M 26158.90592141 .00004543 00000-0 19735-3 0 9990
2 64539 97.4722 274.4795 0003016 181.6532 178.4695 15.22809142 53466
Epoch: 7. Juni 2026 • Age: 11 hours

Aktueller Status

Höhe 504.8 km
Geschwindigkeit 7.61 km/s
Subsatellitenpunkt 40.39°N, 122.58°W
Startdatum 23. Juni 2025
Alter 0.9 years
Typ other

Technische Details

Klassifizierung Payload
Masse 100.00 kg
Trockenmasse 100.00 kg
Gesamtmasse 100.00 kg
Länge 0.50 m
Durchmesser 0.50 m
Spannweite 0.50 m
Form Box
Hersteller GILM
Bus-Typ ElaraSat
Phasenstatus In Orbit
Besitzer/Staat GILM/AU

Most Searched